Regional Weather Roundup
Issued by NWS Grand Forks, ND

Home | Current Version | Previous Version | Graphics & Text | Print | Product List | Glossary On
Versions: 1 2 3 4 5 6 7 8 9 10 11 12 13 14 15 16 17 18 19 20 21 22 23 24 25 26 27 28 29 30 31 32 33 34 35 36 37 38 39 40 41 42 43 44 45 46 47 48 49 50
000
ASUS43 KFGF 241631
RWRFGF
PRAIRIE TO PINES  WEATHER ROUNDUP
NATIONAL WEATHER SERVICE EASTERN NORTH DAKOTA/GRAND FORKS ND
1100 AM CDT MON APR 24 2017

 **SATELLITE DATA USED TO AUGMENT SKY COVER AT AUTOMATED STATIONS**
 *****  WEATHER ACROSS EASTERN NORTH DAKOTA  *****

CITY           SKY/WX    TMP DP  RH WIND       PRES   REMARKS
GRAND FORKS    LGT RAIN  37  34  89 E9        29.68R
GRAND FRKS AFB LGT RAIN  32  32 100 NE9       29.67F FOG     WCI  24
DEVILS LAKE    LGT SNOW  32  30  93 NE15      29.67F FOG     WCI  22
FARGO          CLOUDY    49  36  61 E8        29.57F
WAHPETON ARPT  FAIR      57  39  51 S15       29.52F
$$

 ***** WEATHER ACROSS CENTRAL AND WESTERN NORTH DAKOTA  *****

CITY           SKY/WX    TMP DP  RH WIND       PRES   REMARKS
BISMARCK       LGT RAIN  35  33  92 N12       29.66F
MINOT          LGT SNOW  31  27  85 N13       29.72S FOG     WCI  21
JAMESTOWN      LGT RAIN  35  32  88 NE14      29.59F
MINOT AFB      LGT SNOW  30  27  88 E9        29.72  FOG     WCI  22
GARRISON         N/A     31  29  92 NE5       29.69S
WILLISTON      CLOUDY    33  27  78 E10       29.73S WCI  25
DICKINSON      CLOUDY    31  30  96 N5        29.63F
HETTINGER      CLOUDY    36  33  89 NW12      29.64F
$$

 *****  OTHER AIRPORT OBSERVATIONS IN OUR AREA  *****

CITY           SKY/WX    TMP DP  RH WIND       PRES   REMARKS
WALHALLA       NOT AVBL
GRAFTON AIRPOR LGT SNOW  32  32 100 NE8       29.73S VSB 3/4 WCI  25
VALLEY CITY AR CLOUDY    34  34 100 N13       29.60S WCI  25
CANDO          NOT AVBL
CAVALIER APRT  SNOW      32  30  93 NE8G14    29.74R VSB 1/2 WCI  25
GWINNER        SUNNY     45  37  76 MISG      29.54S
SHEYENNE NWR     N/A     45  36  71 NE7       29.95S
ROLLA          MIX PCPN  27  25  93 NE18G25   29.73S WCI  13
 ***** THE ABOVE OBSERVATIONS ARE NON NWS ARE NOT QUALITY
       CONTROLLED AND MAY MIS-REPORT RAIN FOR SNOW...
$$

  *****  WEATHER ACROSS NORTHERN MINNESOTA  *****

CITY           SKY/WX    TMP DP  RH WIND       PRES   REMARKS
FLAG ISLAND    SNOW      30  30 100 E15G21    29.78F VSB 1/4 WCI  19
WARROAD        RAIN      34  28  80 E21       29.76F WCI  22
ROSEAU         LGT SNOW  34  28  80 E20       29.73F WCI  22
HALLOCK        LGT SNOW  34  32  93 E12       29.71R
THF RVR FALLS  CLOUDY    34  30  85 E22G29    29.66  WCI  22
BAUDETTE       CLOUDY    33  27  78 E22G30    29.76F WCI  21
WASKISH        CLOUDY    34  28  80 E15G26    29.73F WCI  24
CROOKSTON      CLOUDY    36  36 100 E16       29.65F
STEPHEN NDAWN    N/A     34  32  93 E8          N/A
GREENBUSH NDAW   N/A     32  32 100 NE20        N/A  WCI  20
$$
  *****  WEATHER ACROSS CENTRAL AND WEST MINNESOTA  *****

CITY           SKY/WX    TMP DP  RH WIND       PRES   REMARKS
FOSSTON        FAIR      45  34  65 E10G17    29.63F
BEMIDJI        FAIR      42  34  73 E16       29.66F
PARK RAPIDS    FAIR      48  33  56 SE8       29.64F
ELBOW LAKE     FAIR      60  39  45 S24G30    29.57F
WADENA         FAIR      54  37  54 SE12G17   29.61F
DETROIT LAKES  RAIN      46  36  66 SE13      29.59F
MOORHEAD       PTSUNNY   48  37  66 E7        29.57F
FERGUS FALLS   FAIR      61  39  44 S20G25    29.55F
MORRIS MN      FAIR      61  39  44 S24       29.57F
STAPLES        FAIR      54  36  50 SE9G16    29.63F
$$
  *****  WEATHER ELSEWHERE ACROSS MINNESOTA  *****

CITY           SKY/WX    TMP DP  RH WIND       PRES   REMARKS
DULUTH         FAIR      37  28  70 E23G33    29.83F
INTRNTL FALLS  CLOUDY    33  26  75 E13       29.82F WCI  24
ELY            FAIR      37  28  70 SE15      29.85F
CLOQUET        FAIR      41  28  60 E14G23    29.80F
WHEATON        FAIR      63  36  36 S17G25    29.55F
BRAINERD       FAIR      52  38  58 E6        29.68F
HIBBING        FAIR      39  31  72 SE16G23   29.79F
ALEXANDRIA     FAIR      60  37  42 S22G33    29.62F
SAINT CLOUD    CLOUDY    62  38  40 S20G31    29.68F
MINNEAPOLIS    CLOUDY    62  33  33 S17       29.75F
$$

  *****  WEATHER ACROSS SOUTH DAKOTA  *****

CITY           SKY/WX    TMP DP  RH WIND       PRES   REMARKS
SIOUX FALLS    CLOUDY    57  40  52 S24G31    29.58F
BROOKINGS      FAIR      57  38  48 S26G33    29.57S
WATERTOWN      FAIR      58  38  47 S25G35    29.53F
HURON          FAIR      62  40  44 S16G28    29.51F
SISSETON         N/A     63  40  42 SW17      29.51F
ABERDEEN       FAIR      53  40  61 NW15      29.53S
MITCHELL       FAIR      60  39  45 S20G30    29.54F
PIERRE         CLOUDY    40  37  89 NW21      29.55S
MOBRIDGE       CLOUDY    39  34  82 N15       29.56R
RAPID CITY     FAIR      50  42  74 N18       29.62R
$$

  *****  SOME WEATHER IN NEARBY STATES *****

CITY           SKY/WX    TMP DP  RH WIND       PRES   REMARKS
GLASGOW MT     CLOUDY    36  32  85 E9        29.69F
GREAT FALLS MT FAIR      50  33  52 SW10      29.63F
CHEYENNE WY    FAIR      54  24  31 NW17G25   29.73F
SCOTTSBLUFF NE FAIR      58  38  47 NW17G25   29.66F
OMAHA NE       PTSUNNY   64  36  35 S24G37    29.69F
DES MOINES IA  CLOUDY    68  31  25 S26G36    29.81F
DAVENPORT IA   FAIR      69  31  24 S18       29.94F
CHICAGO IL     PTSUNNY   66  35  31 SE10      29.99F
EAU CLAIRE WI  FAIR      59  37  44 SE12      29.84F
LA CROSSE WI   FAIR      63  39  41 S10       29.87F
$$

  *****  SOME NATIONAL WEATHER *****

CITY           SKY/WX    TMP DP  RH WIND       PRES   REMARKS
LA GUARDIA NY  CLOUDY    55  45  68 NE8       30.17S
RALEIGH NC     RAIN      54  53  97 N13       29.88F FOG
ATLANTA GA     DRIZZLE   56  53  90 N8        29.78S FOG
NEW ORLEANS LA FAIR      70  48  45 NW14      29.94F
OKLAHOMA CITY  FAIR      66  44  45 S22G28    29.84F
ALBUQUERQUE NM FAIR      67  26  21 SW15      29.91S
SALT LAKE CITY LGT RAIN  55  39  54 NW6       29.69S
LOS ANGELES CA PTSUNNY   63  54  72 W8        29.94R
BOISE ID       LGT RAIN  45  42  89 NW8       29.73S FOG
SEATTLE WA     CLOUDY    48  43  82 N6        29.72S
$$

*** WEATHER ACROSS MANITOBA...SASKATCHEWAN AND ONTARIO ***
                ***ONTARIO***

CITY           SKY/WX    TMP DP  RH WIND       PRES   REMARKS
GERALDTON      CLOUDY    34  10  37 E16       30.15F WCI  23
THUNDER BAY    CLOUDY    34  30  86 E18G29    30.06F WCI  23
SIOUX LOOKOUT  CLOUDY    32  10  40 SE15G26   29.98F WCI  22
TORONTO        MOSUNNY   48  30  49 E15G22    30.19S
BIG TROUT LK   SUNNY     16   0  48 SE5       30.30F WCI   9
PICKLE LAKE    PTSUNNY   28  10  47 E8        30.13F WCI  20
DRYDEN         LGT SNOW  28  25  86 E14G25    29.93F WCI  17
KENORA         SNOW      30  27  86 E15G21    29.88S VSB 1/2 WCI  19
$$
                *** MANITOBA***

CITY           SKY/WX    TMP DP  RH WIND       PRES   REMARKS
BRANDON        CLOUDY    34  14  44 E28G35    29.80F WCI  20
DAUPHIN        CLOUDY    32  19  59 NE16      29.93F WCI  21
ISLAND LAKE    PTSUNNY   25   3  39 E10G17    30.21F WCI  15
PILOT MOUND      N/A     28  25  86 NE18G24     N/A  WCI  16
THE PAS        CLOUDY    28   5  37 E14G21    30.11F WCI  17
THOMPSON       MOSUNNY   18  -2  41 NE12      30.26F WCI   5
WINNIPEG       LGT SNOW  34  23  64 E14G20    29.83F WCI  24
LYNN LAKE      SUNNY     14  -2  48 E9        30.20F WCI   2
CHURCHILL      MOSUNNY   -4  -9  77 W9        30.44S WCI -20
GILLAM         MOSUNNY   12  -6  44 NE6       30.36F WCI   3
$$
                ***SASKATCHEWAN***

CITY           SKY/WX    TMP DP  RH WIND       PRES   REMARKS
ESTEVAN        FLURRIES  28  25  86 NE17      29.76F WCI  16
KINDERSLEY     CLOUDY    32  30  93 E18       29.71F WCI  20
LLOYDMINSTER   FRZ RAIN  30  30 100 SE16      29.76S WCI  19
PRINCE ALBERT  LGT SNOW  30  27  86 E14       29.93R FOG     WCI  20
REGINA         CLOUDY    28  23  80 SE18      29.81F WCI  16
YORKTON        LGT SNOW  28  25  86 E15G22    29.89S WCI  17
N. BATTLEFORD  CLOUDY    32  32 100 SE17G24   29.82S WCI  21
LA RONGE       FLURRIES  28  16  59 E13       30.01S WCI  18
SASKATOON      CLOUDY    30  27  86 SE18G24   29.85F WCI  18
SWIFT CURRENT  CLOUDY    30  30 100 E12G18    29.69S WCI  21
$$
NOTE: THESE ARE AUTOMATED STATIONS WITH LIMITED QUALITY CONTROL
      "FAIR" INDICATES FEW OR NO CLOUDS BELOW 12,000 FEET WITH NO
      SIGNIFICANT WEATHER AND/OR OBSTRUCTIONS TO VISIBILITY.
      SKY/WX - SKY CONDITION AND SIGNIFICANT WEATHER.
      TMP - AIR TEMPERATURE.    DP   - DEWPOINT TEMPERATURE.
      RH  - RELATIVE HUMIDITY.  PRES - PRESSURE.
      HX  - HEAT INDEX.         WCI  - WIND CHILL INDEX.
$




USA.gov is the U.S. government's official web portal to all federal, state and local government web resources and services.